Theta_e
317 320 317 314 310 310 311 311 311 312 311 311 311 310 311 312 310 309 309 309 309 311 313 314 314 315 313 324 339 345 347 346 345 345 344 344 344 344 345 344 343 343 342 342
319 321 319 316 313 313 313 312 311 313 314 312 312 311 311 311 311 310 311 311 311 312 313 313 315 315 313 321 336 345 346 345 345 345 345 345 343 343 343 343 343 343 342 342
318 319 319 319 318 317 312 312 312 314 315 314 313 313 312 313 312 313 311 311 311 312 313 314 313 314 314 324 334 343 345 346 345 346 346 345 343 343 343 344 344 344 344 343
317 316 317 320 320 317 318 314 314 315 316 314 313 313 313 313 314 312 312 311 312 314 315 316 314 313 321 330 334 340 344 346 345 345 346 345 343 340 342 344 345 344 342 340
318 316 316 318 320 319 318 317 316 317 317 315 315 312 313 313 315 314 314 314 315 325 331 330 320 337 336 338 342 343 344 344 345 345 346 346 343 342 342 342 341 339 338 337
317 316 316 317 318 320 319 320 320 318 317 317 316 313 312 314 315 316 317 315 326 329 329 335 343 346 346 347 345 343 342 343 345 345 345 344 343 342 340 338 337 337 337 335
322 319 317 318 319 318 321 322 328 324 319 320 314 313 313 314 316 317 319 321 324 325 333 336 337 338 343 343 346 345 343 343 343 342 341 339 339 338 338 337 337 338 338 336
326 323 319 320 321 321 321 324 325 329 319 319 313 315 313 321 322 320 320 322 325 334 335 336 337 337 339 343 344 343 344 342 344 343 342 340 339 337 336 337 337 337 336 336
326 325 322 320 320 322 320 323 319 315 326 321 316 318 326 328 326 325 327 329 333 334 334 333 332 332 333 336 341 345 344 344 343 343 342 340 339 338 337 336 334 333 334 334
324 327 323 322 320 320 322 318 320 322 323 325 324 333 332 330 328 325 327 326 331 333 329 327 328 329 329 330 334 339 339 338 341 340 339 339 338 338 338 337 337 337 337 337
324 324 324 322 323 322 321 322 321 317 318 322 327 329 329 328 327 326 325 325 327 329 326 326 325 326 325 326 328 329 330 331 332 333 333 332 331 329 331 332 331 329 328 328
324 324 326 323 323 323 322 320 318 318 321 320 324 330 329 325 325 325 325 328 325 322 320 319 319 319 318 318 321 323 324 323 323 323 323 323 325 325 325 324 324 324 323 328
324 324 326 324 325 322 325 324 319 316 319 323 324 327 327 326 324 324 324 325 325 323 319 317 316 315 315 315 315 316 315 315 315 315 315 314 314 314 315 315 316 316 316 315
324 321 323 324 324 324 326 325 321 320 319 323 323 334 329 330 328 324 324 323 324 322 319 316 314 313 313 312 312 312 312 313 313 313 312 312 312 313 312 311 311 311 310 310
325 325 323 325 327 327 327 327 328 322 321 324 327 331 329 329 329 327 324 325 327 321 318 315 312 312 312 312 312 312 312 312 311 310 309 309 309 308 309 308 308 308 308 307
322 327 324 325 324 326 328 328 329 329 327 328 330 331 326 326 325 326 325 326 323 319 316 314 313 312 312 312 312 312 311 311 311 310 309 308 308 308 307 307 307 307 307 307
322 321 325 327 325 325 328 325 327 329 328 328 329 328 325 325 324 325 324 325 322 320 317 315 313 311 311 312 312 312 312 311 311 309 308 307 307 307 306 306 306 306 305 306
322 323 320 326 324 328 323 321 325 327 327 327 328 326 324 321 320 320 321 321 320 318 316 314 311 311 312 313 312 312 311 310 309 307 306 306 306 305 305 305 304 303 303 302
319 321 321 326 324 325 324 324 327 326 324 322 324 319 317 316 316 314 315 315 313 312 311 310 310 310 311 311 311 309 308 307 306 306 305 304 304 303 302 301 300 300 299 299
318 320 319 320 324 327 323 322 321 321 325 321 319 318 318 318 320 315 312 311 310 310 310 308 306 305 306 305 306 306 304 304 302 301 301 300 300 300 299 298 298 298 297 296
318 316 319 318 323 325 323 322 320 322 325 319 318 318 318 319 315 311 309 307 305 306 303 303 302 302 303 303 303 301 299 298 298 298 298 298 298 297 296 296 295 295 295 295
315 314 314 316 319 326 319 320 318 318 313 316 316 315 314 313 310 307 304 301 301 301 300 299 299 299 299 300 300 297 296 296 296 296 296 295 295 294 293 293 293 293 293 294
317 313 316 315 317 317 315 314 311 311 312 313 309 308 307 305 303 302 300 299 298 298 298 298 298 297 297 297 297 296 294 295 295 294 293 292 292 291 291 291 292 292 293 293
316 314 318 319 319 315 310 306 306 306 305 305 304 303 302 301 300 299 298 297 296 296 296 296 296 295 294 294 294 294 293 292 291 290 290 290 290 290 291 292 292 292 293 293
313 315 319 320 317 310 305 303 304 304 302 301 300 301 300 300 298 297 296 295 294 294 294 294 294 293 292 292 291 291 290 289 289 289 289 289 289 290 290 292 293 293 294 294
311 314 316 319 315 311 305 302 304 302 301 300 299 297 296 297 296 294 293 293 293 293 293 292 292 291 290 290 289 289 288 288 288 288 289 290 290 291 292 292 293 294 294 294
Wind_Speed
7 6 13 8 8 4 6 6 7 1 7 9 9 7 9 9 7 9 10 10 11 13 15 18 22 22 13 22 28 30 31 33 38 33 33 30 30 31 30 28 27 27 25 25
4 18 10 8 10 13 13 14 17 3 3 3 5 10 10 9 9 9 14 13 13 8 7 11 22 19 13 24 30 30 32 35 38 42 38 25 28 27 26 24 24 26 27 29
12 6 15 12 13 13 12 17 10 4 4 6 4 9 7 12 9 16 11 12 10 12 10 11 11 18 13 24 31 35 36 37 37 33 37 23 25 19 17 18 20 24 24 26
11 13 14 15 19 11 15 6 7 4 2 4 3 6 6 8 13 9 17 8 10 8 8 6 7 5 15 21 28 34 35 34 35 36 33 33 29 19 19 27 26 23 24 24
9 11 17 20 14 14 9 4 5 5 6 4 7 2 8 3 8 7 8 9 4 5 5 7 6 10 12 16 21 25 30 29 29 35 38 35 29 25 21 26 24 22 23 20
10 6 13 23 15 14 12 11 4 6 1 3 16 10 5 4 7 1 2 4 7 5 5 6 8 15 16 16 18 20 22 27 33 36 37 34 31 29 24 22 22 23 20 22
4 11 5 8 13 13 11 5 1 3 4 11 5 6 9 5 5 3 4 8 7 6 8 7 9 7 13 13 14 16 16 16 24 26 23 23 24 22 22 22 20 20 25 27
9 5 15 9 9 6 12 10 4 5 5 11 3 7 3 7 9 3 5 8 6 8 9 12 12 10 16 14 12 11 13 13 18 18 18 13 11 10 9 9 13 19 21 22
4 6 2 8 11 14 5 18 14 1 2 2 3 3 2 12 10 10 15 12 5 7 10 12 13 17 20 23 18 11 11 7 8 9 9 9 9 12 14 16 16 18 19 21
6 2 4 4 5 11 15 8 5 4 4 2 3 2 0 6 8 7 14 5 8 7 9 11 12 17 21 26 29 26 19 12 7 3 2 3 5 5 5 6 8 10 15 19
3 2 2 3 4 10 7 6 3 5 4 5 3 0 2 1 5 6 7 7 1 10 9 10 12 19 23 25 30 31 31 30 26 23 20 18 15 13 13 11 7 5 5 3
11 3 5 11 2 4 10 8 14 5 5 3 4 2 1 3 6 10 8 6 3 10 9 9 12 17 20 23 25 30 33 33 30 27 27 26 24 21 18 17 17 15 15 14
7 3 4 2 2 7 5 5 4 4 3 6 5 4 5 4 11 9 6 6 5 12 12 11 12 11 18 22 24 30 29 31 29 28 26 22 19 17 15 14 13 13 14 16
4 4 4 7 2 6 9 9 6 7 4 5 5 8 6 6 10 7 7 5 6 7 11 11 11 12 16 20 22 28 29 27 26 24 23 21 19 18 18 17 16 15 13 13
2 7 5 4 2 1 4 8 7 5 7 6 9 11 15 17 16 6 4 4 10 8 9 12 12 10 15 17 23 26 26 25 25 26 25 22 19 18 17 15 15 14 15 15
2 4 6 6 2 5 4 2 5 2 7 6 11 5 7 9 12 14 6 6 11 12 10 10 11 8 11 16 20 20 22 23 21 20 18 16 15 14 14 14 14 14 16 17
2 4 6 6 7 5 8 11 6 4 1 11 5 7 14 16 15 17 14 9 12 9 8 6 8 8 14 16 16 16 17 16 15 14 14 13 13 12 11 12 13 15 15 14
3 3 2 5 8 5 3 7 8 6 5 8 11 16 13 13 10 9 14 16 16 15 12 9 7 10 11 11 12 13 12 11 12 13 13 12 10 10 9 10 10 11 12 15
4 2 3 3 2 7 10 2 5 16 3 4 16 13 15 15 16 7 8 9 8 7 6 10 13 9 8 9 9 13 14 14 14 13 14 12 9 8 7 9 10 12 14 17
4 5 3 2 3 3 3 6 8 6 2 5 18 18 19 14 7 2 4 9 7 10 10 14 16 18 19 16 17 18 17 16 15 11 9 8 7 8 9 12 14 15 18 19
3 2 4 3 2 4 3 4 1 4 4 1 15 18 16 10 8 6 6 8 9 12 18 22 22 21 18 16 16 17 14 14 9 7 7 9 11 12 13 16 17 19 19 17
3 3 2 1 3 1 7 2 3 5 5 12 10 11 13 15 11 8 9 8 9 12 15 17 20 19 15 12 11 12 12 8 9 12 15 17 18 18 18 19 20 17 14 12
3 2 4 3 2 5 7 13 10 11 14 15 12 11 15 14 10 10 9 9 8 11 15 16 18 16 12 10 10 11 8 12 15 17 18 19 18 17 15 14 13 13 11 9
3 2 4 2 7 8 11 14 15 14 13 12 12 12 12 12 10 9 8 6 7 12 12 11 12 12 10 9 10 9 10 13 14 16 16 15 14 13 12 11 10 10 10 7
0 4 4 7 9 14 12 10 14 14 14 17 14 12 12 13 9 7 6 6 8 10 9 8 8 7 6 4 6 8 11 13 14 13 11 10 9 10 12 11 10 10 10 10
2 6 4 3 3 9 4 5 10 14 12 11 15 11 10 9 9 6 6 6 6 6 5 5 5 4 3 6 8 9 10 10 9 7 9 10 11 12 12 13 14 11 9 8
Wind_Direction
189 193 216 196 209 250 296 278 248 192 247 197 240 257 253 256 248 245 247 252 258 257 264 276 273 267 231 197 197 198 190 195 186 190 196 207 212 213 215 219 226 225 224 225
198 228 203 210 199 214 239 261 262 291 259 215 278 271 260 247 248 224 239 239 242 250 272 273 268 261 203 192 195 193 195 191 189 188 193 195 202 204 208 217 223 227 228 230
210 194 197 208 221 214 218 223 240 218 314 280 291 290 286 271 242 243 239 230 242 237 241 251 252 244 171 180 189 194 199 196 191 188 188 184 182 174 181 188 201 209 218 221
230 220 245 216 219 209 235 205 224 227 252 236 128 280 282 276 256 220 231 221 234 236 227 231 234 168 177 181 187 194 200 194 190 191 189 182 174 176 194 193 197 206 210 216
219 199 219 241 239 224 245 209 227 212 233 264 254 290 261 330 265 240 213 226 210 216 226 174 153 143 156 168 180 190 193 191 190 193 200 193 190 193 204 206 218 232 238 243
216 225 206 230 233 233 234 269 335 349 126 250 243 198 279 232 223 201 20 208 173 133 137 110 109 121 123 141 162 181 191 198 199 199 202 202 201 209 220 224 232 245 248 263
302 255 232 216 220 228 212 143 123 226 194 234 205 181 226 289 269 174 209 153 127 134 98 95 92 100 121 130 139 162 178 191 205 206 210 215 222 230 238 246 258 272 269 276
198 239 200 193 196 184 206 187 178 161 199 231 198 224 234 285 265 129 64 104 100 105 103 97 96 94 99 107 111 133 167 200 214 221 227 231 232 220 230 253 271 272 273 283
226 235 214 192 210 189 225 184 200 196 19 134 213 250 184 5 6 103 107 93 72 87 101 96 88 89 94 93 99 133 162 190 221 230 251 259 259 260 271 277 274 275 277 275
215 214 218 195 188 201 208 154 204 198 205 182 260 90 47 346 329 350 94 51 131 105 97 97 95 93 89 91 93 91 95 104 141 142 282 292 292 290 302 319 301 284 283 272
135 151 183 39 210 188 188 186 125 156 172 179 165 9 274 261 351 38 61 71 116 109 106 99 100 97 96 91 93 95 95 96 94 97 97 92 93 86 75 63 43 30 9 318
177 175 210 211 261 272 199 184 180 172 216 211 148 177 138 106 50 50 27 87 84 90 77 84 84 91 91 89 87 92 96 94 93 92 88 84 82 79 79 73 68 61 54 42
156 216 133 125 40 278 196 192 164 152 131 186 125 189 210 109 56 45 31 40 59 92 90 82 85 80 79 85 90 92 94 98 96 94 90 85 81 80 75 74 73 66 62 59
153 216 194 189 177 173 196 192 172 162 137 177 171 142 194 171 93 58 63 41 47 72 93 93 82 81 84 86 84 87 89 89 91 90 87 82 79 81 80 77 72 67 57 50
218 215 167 106 114 64 207 190 152 169 172 162 173 163 181 170 139 121 104 117 98 85 94 97 91 90 92 98 90 91 87 85 88 88 85 83 80 76 71 61 52 43 34 23
54 274 152 169 325 104 21 301 144 176 117 85 130 67 130 138 118 137 186 119 111 108 107 109 112 109 105 96 102 101 97 95 94 90 85 79 71 63 56 44 28 15 10 7
218 233 137 175 161 130 216 236 194 149 177 136 148 166 147 149 151 164 158 147 123 132 130 146 121 119 119 116 116 109 103 102 99 96 92 86 80 66 51 39 23 22 18 8
241 131 89 122 111 212 272 201 190 122 65 98 103 138 143 148 148 162 159 158 156 162 162 133 124 119 125 118 111 107 105 97 89 78 70 67 65 65 52 39 30 15 3 352
256 134 104 132 180 146 82 148 172 157 69 341 121 121 114 117 101 43 102 117 122 124 126 134 131 128 115 106 95 92 75 71 64 57 55 53 52 53 40 24 7 353 342 335
78 72 72 78 84 97 181 83 94 110 21 343 141 135 132 129 121 151 108 111 113 126 114 95 97 96 91 95 107 93 78 74 70 68 64 53 35 15 2 350 338 332 329 326
77 22 89 25 74 68 12 325 84 82 202 120 144 139 139 127 133 153 110 64 74 95 95 103 95 91 93 97 98 89 83 71 73 54 23 2 350 343 327 324 325 322 319 318
114 106 107 287 86 4 15 322 161 150 50 106 98 105 97 110 93 97 94 81 87 94 95 97 92 86 84 81 83 84 67 39 9 353 343 337 331 327 320 318 317 316 317 318
46 155 130 95 193 319 34 93 80 92 95 101 98 85 101 105 101 100 91 88 86 93 91 97 99 98 80 69 55 54 31 358 344 335 329 325 321 322 322 322 324 325 329 326
81 29 91 90 25 41 57 64 68 77 84 82 85 96 102 104 102 102 106 85 70 70 77 88 89 85 69 48 35 26 349 332 331 327 327 328 331 336 339 338 334 327 330 321
328 27 98 83 102 79 56 77 95 83 80 80 67 73 90 97 74 83 72 69 76 77 72 75 90 89 78 33 359 341 331 332 333 332 338 342 340 336 338 351 345 337 345 337
351 152 129 159 104 103 108 74 102 89 86 88 97 77 58 88 101 99 96 110 115 108 104 83 69 55 13 342 330 327 326 329 332 339 344 344 344 350 352 346 344 6 360 8